This is the latest recevied weather packets stored in our database for station/object GW1480. If no packets are shown the sender has not sent any weather packets the latest 10 day(s).
| Time | Temp. | Humidity | Pressure | Rain* | Wind** | Luminosity | Snow |
|---|---|---|---|---|---|---|---|
| 1777911690 | 17.78° C | 67% | 1015.5 hPa | 0 mm | - | - | - |
| 1777911312 | 17.78° C | 68% | 1015.5 hPa | 0 mm | - | - | - |
| 1777909155 | 18.33° C | 66% | 1015.9 hPa | 0 mm | - | - | - |
| 1777908790 | 17.78° C | 65% | 1016.2 hPa | 0 mm | - | - | - |
| 1777905223 | 15° C | 72% | 1016.5 hPa | 0 mm | - | - | - |
| 1777903777 | 15.56° C | 68% | 1017.2 hPa | 0 mm | - | - | - |
| 1777898370 | 12.78° C | 63% | 1016.5 hPa | 0 mm | - | - | - |
| 1777894049 | 6.67° C | 90% | 1015.9 hPa | 0 mm | - | - | - |
| 1777872802 | 9.44° C | 86% | 1018.2 hPa | 0 mm | - | - | - |
| 1777872104 | 8.89° C | 85% | 1017.9 hPa | 0 mm | - | - | - |
| 1777868502 | 8.89° C | 90% | 1018.2 hPa | 0 mm | - | - | - |
| 1777867790 | 8.89° C | 90% | 1017.9 hPa | 0 mm | - | - | - |
| 1777865993 | 8.89° C | 86% | 1018.2 hPa | 0 mm | - | - | - |
| 1777860233 | 8.33° C | 77% | 1017.6 hPa | 0 mm | - | - | - |
| 1777854817 | 10.56° C | 74% | 1017.6 hPa | 0 mm | - | - | - |
| 1777847952 | 18.33° C | 36% | 1017.9 hPa | 0 mm | - | - | - |
| 1777847631 | 18.33° C | 33% | 1017.9 hPa | 0 mm | - | - | - |
| 1777847247 | 18.33° C | 32% | 1017.9 hPa | 0 mm | - | - | - |
| 1777845814 | 18.89° C | 32% | 1017.9 hPa | 0 mm | - | - | - |
| 1777843670 | 18.33° C | 35% | 1017.9 hPa | 0 mm | - | - | - |
| 1777842943 | 18.33° C | 32% | 1017.9 hPa | 0 mm | - | - | - |
| 1777840754 | 17.78° C | 33% | 1018.6 hPa | 0 mm | - | - | - |
| 1777837175 | 17.78° C | 35% | 1019.9 hPa | 0 mm | - | - | - |
| 1777829958 | 15° C | 40% | 1021.6 hPa | 0 mm | - | - | - |
| 1777828175 | 14.44° C | 41% | 1022 hPa | 0 mm | - | - | - |
* Rain since midnight (hover to see other rain measurements)
** Current wind speed in m/s (hover to see current wind gust speed)